THOR ABLESTAR DEB, 652

Orbit data source: Space-Track

THOR ABLESTAR DEB, 652 is space debris in LEO originally from a launch on Thu, 29 Jun 1961 UTC launched from the Air Force Eastern Test Range (AFETR). Debris objects in space refer to the collection of defunct objects orbiting the Earth. Examples of debris include non-operational satellites, rocket bodies, and fragments generated from explosions, collisions, or faulty payload assembly.

Loading next visibility...
Identifier
652, 1961-015HD
Orbit
LEO
Country
Flag of USUS
Related business
Manufacturer
Unknown
Mission
Spacecraft
Bus & Motor
Unknown
Mass
Unknown
Launch date (UTC)
1961-06-29 (64 years ago)
Launch vehicle
Unknown
Launch site
Air Force Eastern Test Range (AFETR)
Object type
Payload
Rocket body
Debris
Shape & HBR
Unknown
Radar Cross Section
Small (<0.1 m²)

Expand to show TLE details & history
Last TLE update: 20 hours ago

TLE from 20 hours ago
0 THOR ABLESTAR DEB
1 00652U 61015HD  25258.93542695  .00001540  00000-0  77819-3 0  9996
2 00652  66.7037  90.0073 0076472 197.8570 161.9833 14.17374204254977
Epoch: 2025-09-15T22:27Z
TLE epoch observation values (Epoch: 2025-09-15T22:27:00.888Z)
Latitude
-0.00001°
Longitude
118.12065°
Altitude
888.838 km
Speed
7.381 km/s
True Right ascension
06h 00m 01s
True Declination
0° 00' 00"
Sunlit
Object was in daylight at epoch
Visualization orbit readout
Latitude
Unknown
Longitude
Unknown
Altitude
Unknown
Speed
Unknown
Apparent Right ascension
Unknown
Apparent Declination
Unknown
Sunlit
N/A
Visualization observer readout
Local Sidereal Time
10:58:42
Azimuth
Unknown
Elevation
Unknown
Doppler factor
Unknown
Orbital elements
Apogee altitude
887.773 km
Perigee altitude
777.489 km
Semi-major axis
7,210.768 km
Eccentricity
0.00765
Inclination
66.7037°
RAAN
90.0073°
Arg. of periapsis
197.857°
True anomaly
162.25189°
Mean anomaly
161.9833°
Eccentric anomaly
162.11784°
Mean motion
3.54463 °/min
Orbital period
101.56 mins
BSTAR
0.00077819
Loading maneuver chart data...
Computing Atmospheric mass density...

Documentation

Showing up to 5 results
|